TimeCST,TemperatureF,Dew PointF,Humidity,Sea Level PressureIn,VisibilityMPH,Wind Direction,Wind SpeedMPH,Gust SpeedMPH,PrecipitationIn,Events,Conditions,WindDirDegrees,DateUTC
12:04 AM,71.6,60.8,69,29.54,10.0,South,26.5,40.3,N/A,,Overcast,190,2013-01-30 06:04:00
12:52 AM,72.0,60.1,66,29.47,10.0,South,21.9,34.5,N/A,,Mostly Cloudy,170,2013-01-30 06:52:00
1:50 AM,69.8,62.6,78,29.52,5.0,SSW,26.5,39.1,0.04,Rain-Thunderstorm,Light Rain,210,2013-01-30 07:50:00
1:52 AM,69.1,62.1,78,29.51,5.0,WSW,25.3,39.1,0.04,Rain-Thunderstorm,Light Thunderstorms and Rain,250,2013-01-30 07:52:00
1:57 AM,62.6,59.0,88,29.50,1.8,West,21.9,43.7,0.16,Rain-Thunderstorm,Heavy Thunderstorms and Rain,260,2013-01-30 07:57:00
2:03 AM,60.8,57.2,88,29.49,0.8,North,-9999.0,-,0.32,Rain-Thunderstorm,Heavy Thunderstorms and Rain,0,2013-01-30 08:03:00
2:11 AM,60.8,57.2,88,29.48,1.0,West,19.6,26.5,0.50,Rain,Heavy Rain,280,2013-01-30 08:11:00
2:41 AM,57.2,53.6,88,29.54,3.0,WNW,25.3,38.0,0.85,Rain,Rain,300,2013-01-30 08:41:00
2:52 AM,55.9,53.1,90,29.54,3.0,WNW,17.3,28.8,0.90,Rain,Heavy Rain,300,2013-01-30 08:52:00
3:52 AM,54.0,52.0,93,29.55,10.0,WNW,5.8,-,0.08,Rain,Light Rain,300,2013-01-30 09:52:00
4:52 AM,53.1,52.0,96,29.55,8.0,SSE,5.8,-,0.07,Rain,Light Rain,150,2013-01-30 10:52:00
5:52 AM,54.0,52.0,93,29.54,7.0,SE,6.9,-,0.06,Rain,Light Rain,140,2013-01-30 11:52:00
6:33 AM,53.6,53.6,100,29.52,6.0,SE,11.5,-,0.06,Rain,Light Rain,130,2013-01-30 12:33:00
6:52 AM,54.0,53.1,97,29.52,10.0,SSE,10.4,-,0.07,Rain,Light Rain,150,2013-01-30 12:52:00
7:52 AM,54.0,52.0,93,29.52,10.0,South,9.2,-,0.00,Rain,Light Rain,170,2013-01-30 13:52:00
8:52 AM,54.0,52.0,93,29.52,10.0,SSW,10.4,-,0.00,,Mostly Cloudy,200,2013-01-30 14:52:00
9:52 AM,55.0,51.1,86,29.52,10.0,SW,10.4,-,N/A,,Partly Cloudy,220,2013-01-30 15:52:00
10:52 AM,55.9,48.9,77,29.51,10.0,SSW,10.4,19.6,N/A,,Scattered Clouds,210,2013-01-30 16:52:00
11:52 AM,57.0,48.9,74,29.46,10.0,SW,17.3,21.9,N/A,,Scattered Clouds,220,2013-01-30 17:52:00
12:52 PM,57.0,46.9,69,29.47,10.0,SW,16.1,25.3,N/A,,Mostly Cloudy,230,2013-01-30 18:52:00
1:52 PM,57.0,45.0,64,29.44,10.0,SW,13.8,28.8,N/A,,Overcast,230,2013-01-30 19:52:00
2:52 PM,55.9,42.1,60,29.46,10.0,WSW,15.0,24.2,N/A,,Overcast,240,2013-01-30 20:52:00
3:48 PM,48.2,42.8,82,29.52,9.0,West,18.4,29.9,0.01,Rain,Light Rain,280,2013-01-30 21:48:00
3:52 PM,46.9,43.0,86,29.52,9.0,West,19.6,29.9,0.01,Rain,Light Rain,280,2013-01-30 21:52:00
4:52 PM,45.0,37.0,74,29.56,10.0,West,17.3,27.6,0.00,,Mostly Cloudy,270,2013-01-30 22:52:00
5:52 PM,43.0,30.9,62,29.61,10.0,West,24.2,33.4,N/A,,Overcast,280,2013-01-30 23:52:00
6:33 PM,41.0,30.2,65,29.65,10.0,WNW,23.0,39.1,N/A,,Overcast,290,2013-01-31 00:33:00
6:52 PM,39.9,30.0,68,29.69,10.0,WNW,12.7,29.9,N/A,,Unknown,290,2013-01-31 00:52:00
7:52 PM,37.0,24.1,59,29.75,10.0,WNW,24.2,32.2,N/A,,Overcast,300,2013-01-31 01:52:00
8:52 PM,36.0,24.1,62,29.81,10.0,West,18.4,27.6,N/A,,Overcast,280,2013-01-31 02:52:00
9:52 PM,35.1,21.9,59,29.85,10.0,WNW,13.8,28.8,N/A,,Overcast,300,2013-01-31 03:52:00
10:52 PM,35.1,24.1,64,29.88,10.0,West,9.2,21.9,N/A,,Overcast,280,2013-01-31 04:52:00
11:52 PM,34.0,21.9,61,29.91,10.0,West,23.0,28.8,N/A,,Overcast,280,2013-01-31 05:52:00